Hourly Data Report for October 22, 2015

All times are specified in Local Standard Time (LST). Add 1 hour to adjust for Daylight Saving Time where and when it is observed.

SAINT JOHN A
NEW BRUNSWICK

45°18'58.000" N
65°53'24.000" W
108.80 m
8104901
71609
YSJ

Download Data

Hourly Data (October 2015)
Hourly Data Report for October 22, 2015
Temp Definition
°C
Dew Point Temp Definition
°C
Rel Hum Definition
%
Wind Dir Definition
10's deg

Wind Spd Definition
km/h
Visibility Definition
km
Stn Press Definition
kPa
Hmdx Definition


Wind Chill Definition


Weather Definition


TIME
00:00 Legend Double Dagger -3.9 -5.0 92 5 8 24.1 101.54   -7 LegendNANA
01:00 Legend Double Dagger -3.3 -4.4 92 36 3 24.1 101.53   -5 LegendNANA
02:00 Legend Double Dagger -3.7 -4.7 93 36 3 24.1 101.55   -5 Mainly Clear
03:00 Legend Double Dagger -3.4 -4.5 92 2 4 24.1 101.51   -5 LegendNANA
04:00 Legend Double Dagger -2.7 -4.0 91 6 7 24.1 101.38   -6 LegendNANA
05:00 Legend Double Dagger -1.0 -2.4 90 32 4 24.1 101.42   -2 Cloudy
06:00 Legend Double Dagger 0.7 -0.5 92 8 9 24.1 101.37     Rain
07:00 Legend Double Dagger 2.4 1.1 91 23 3 24.1 101.41     Rain
08:00 Legend Double Dagger 5.1 1.2 76 13 11 24.1 101.34     Cloudy
09:00 Legend Double Dagger 6.8 0.0 62 15 11 24.1 101.30     LegendNANA
10:00 Legend Double Dagger 8.6 2.4 65 16 16 24.1 101.21     LegendNANA
11:00 Legend Double Dagger 9.0 2.4 63 17 24 24.1 101.11     Cloudy
12:00 Legend Double Dagger 9.4 3.2 65 16 25 24.1 100.97     LegendNANA
13:00 Legend Double Dagger 10.1 3.6 64 15 27 24.1 100.74     LegendNANA
14:00 Legend Double Dagger 10.9 6.1 72 16 23 24.1 100.62     Cloudy
15:00 Legend Double Dagger 11.4 7.5 77 16 20 24.1 100.45     LegendNANA
16:00 Legend Double Dagger 12.2 9.6 84 18 15 24.1 100.37     LegendNANA
17:00 Legend Double Dagger 12.5 10.9 90 17 19 24.1 100.27     Cloudy
18:00 Legend Double Dagger 13.3 11.4 88 18 25 24.1 100.12     LegendNANA
19:00 Legend Double Dagger 12.9 11.8 93 19 29 24.1 100.06     Rain
20:00 Legend Double Dagger 12.2 11.7 97 20 28 19.3 100.04     Rain
21:00 Legend Double Dagger 12.0 11.7 98 19 26 6.4 99.85     Rain,Fog
22:00 Legend Double Dagger 11.9 11.8 99 21 25 4.8 99.80     Fog
23:00 Legend Double Dagger 11.8 11.7 99 23 22 3.2 99.80     Fog

Notes on Data Quality.

Legend

  • E = Estimated
  • M = Missing
  • NA = Not Available
  • ‡ = Partner data that is not subject to review by the National Climate Archives
Date modified: